Flag for USA

Past Weather in Wailuku, Hawaii, USA — Yesterday and Last 2 Weeks

Now
82 °F

Broken clouds.


Feels Like: 88 °F
Forecast: 86 / 73 °F
Wind: 8 mph from North

Location: Kahului Airport
Current Time: Oct 1, 2020 at 12:36:35 pm
Latest Report: Oct 1, 2020 at 11:54 am
Visibility: 10 mi
Pressure29.93 "Hg
Humidity: 77%
Dew Point: 74 °F
Location of WailukuLocation

Past Weather in Wailuku — Graph

°F

Wailuku Temperature Yesterday

Maximum temperature yesterday: 90 °F (at 12:54 pm)
Minimum temperature yesterday: 75 °F (at 5:18 am)
Average temperature yesterday: 82 °F

High & Low Weather Summary for the Past Weeks

 TemperatureHumidityPressure
High95 °F (Sep 18, 11:54 am)90% (Sep 23, 7:54 pm)30.13 "Hg (Sep 23, 7:54 pm)
Low68 °F (Sep 17, 5:54 am)37% (Sep 18, 1:54 pm)29.88 "Hg (Sep 29, 3:54 pm)
Average82 °F62%30.00 "Hg
* Reported Sep 16 10:54 am — Oct 1 10:54 am, Wailuku. Weather by CustomWeather, © 2020

Note: Actual official high and low records may vary slightly from our data, if they occured in-between our weather recording intervals... More about our weather records

Wailuku Weather History for the Previous 24 Hours

Scroll right to see more
 ConditionsComfort  
Time TempWeatherWind HumidityBarometerVisibility
10:54 am
Thu, Oct 1
81 °FBroken clouds.8 mph82%29.95 "Hg10 mi
9:54 am80 °FLight rain. Cloudy.3 mph81%29.96 "Hg7 mi
8:54 am82 °FLight rain. Broken clouds.10 mph72%29.95 "Hg10 mi
7:54 am82 °FBroken clouds.10 mph70%29.94 "Hg9 mi
6:54 am76 °FPassing clouds.5 mph80%29.91 "Hg10 mi
5:54 am76 °FPassing clouds.No wind82%29.90 "Hg10 mi
4:54 am78 °FClear.6 mph82%29.90 "Hg6 mi
4:21 am79 °FPassing clouds.5 mph79%29.89 "Hg9 mi
3:54 am79 °FClear.5 mph79%29.90 "Hg10 mi
2:54 am79 °FOvercast.6 mph79%29.90 "Hg8 mi
1:54 am78 °FPassing clouds.8 mph79%29.92 "Hg8 mi
12:54 am78 °FPassing clouds.3 mph79%29.94 "Hg10 mi
11:54 pm
Wed, Sep 30
78 °FOvercast.7 mph84%29.95 "Hg10 mi
11:29 pm79 °FLight rain. Overcast.7 mph84%29.95 "Hg4 mi
11:19 pm79 °FLight rain. Overcast.7 mph84%29.95 "Hg4 mi
10:54 pm79 °FMostly cloudy.6 mph82%29.97 "Hg10 mi
9:54 pm80 °FPassing clouds.5 mph76%29.98 "Hg10 mi
8:54 pm82 °FPassing clouds.9 mph70%29.97 "Hg10 mi
7:54 pm82 °FPassing clouds.10 mph70%29.96 "Hg10 mi
6:54 pm82 °FPassing clouds.10 mph67%29.93 "Hg10 mi
5:54 pm82 °FScattered clouds.10 mph67%29.91 "Hg10 mi
4:54 pm85 °FScattered clouds.10 mph61%29.90 "Hg10 mi
3:54 pm87 °FScattered clouds.13 mph57%29.89 "Hg10 mi
2:54 pm87 °FScattered clouds.13 mph55%29.89 "Hg10 mi
1:54 pm87 °FScattered clouds.13 mph55%29.91 "Hg10 mi
12:54 pm90 °FScattered clouds.13 mph50%29.94 "Hg10 mi
Weather by CustomWeather, © 2020

See weather overview